Location: Newark
(58.8333°N, 23.5833°E)
Time: 03:12:09
(UTC+00:00)

Tiros 1 despin weight - Pass Details

Date: 25 November 2019
Orbit: 594 x 642 km, 48.2° (Epoch: 08 December)

Event Time Altitude Azimuth Distance (km) Brightness Sun altitude
Rises 14:15:12 0° 260° (W) 2,835 ? -3.8°
Reaches altitude 10° 14:18:41 10° 232° (SW) 1,936 ? -4.2°
Maximum altitude 14:20:35 13° 206° (SSW) 1,770 ? -4.4°
Drops below altitude 10° 14:22:30 10° 180° (S) 1,941 ? -4.6°
Sets 14:26:01 0° 152° (SSE) 2,852 ? -5.0°
